Location: Middle Street
(51.7167°N, 0.0333°E)
Time: 20:07:32
(UTC+00:00)

USA 229 DEB - Pass Details

Date: 20 January 2021
Orbit: 965 x 1247 km, 63.4° (Epoch: 26 February)

Event Time Altitude Azimuth Distance (km) Brightness Sun altitude
Rises 19:38:10 0° 314° (NW) 3,925 7.4 -28.9°
Reaches altitude 10° 19:40:46 10° 313° (NW) 3,004 6.6 -29.3°
Maximum altitude 19:47:59 79° 229° (SW) 1,202 3.9 -30.4°
Enters shadow 19:49:18 63° 162° (SSE) 1,313 3.9 -30.6°
